{"data":{"norad_id":44323,"intl_designator":"2019-033B","name":"RCM-3","alt_names":[],"object_type":"PAYLOAD","status":"ACTIVE","operator":null,"country":"CA","launch_date":"2019-06-12","launch_site_code":"AFWTR","launch_vehicle":null,"mission":null,"orbit_class":"UNKNOWN","rcs_meters":null,"size_class":null,"mass_kg":null,"dimensions":null,"purposes":[],"wikipedia_slug":null,"has_3d_model":false,"image_url":null,"decayed_at":null,"tle_current":{"epoch":"2026-09-20T05:14:57.283584Z","epoch_age_seconds":82694,"freshness":"FRESH","line1":"1 44323U 19033B   26263.21871856  .00000495  00000+0  53565-4 0  9994","line2":"2 44323  97.7600 269.4160 0001524  90.8611 269.2782 14.92587954396279","mean_motion":14.92587954,"eccentricity":0.0001524,"inclination_deg":97.76,"raan_deg":269.416,"arg_perigee_deg":90.8611,"mean_anomaly_deg":269.2782,"bstar":5.3565e-5,"rev_number":39627,"period_min":96.476726623777,"perigee_km":588.8076719783,"apogee_km":590.93152038882,"semimajor_km":6968.0065961836,"source":"CELESTRAK","updated_at":"2026-09-20T09:00:14.459272Z"}}}